Regional Weather Roundup
Issued by NWS

Home | Current Version | Previous Version | Text Only | Print | Product List | Glossary On
Versions: 1 2 3 4 5 6 7 8 9 10 11 12 13 14 15 16 17 18 19 20 21 22 23 24 25 26 27 28 29 30 31 32 33 34 35 36 37 38 39 40 41 42 43 44 45 46 47 48 49 50
000
ASUS43 KFSD 240210
RWRSD

WEATHER ROUNDUP FOR SOUTH DAKOTA
NATIONAL WEATHER SERVICE SIOUX FALLS SD
900 PM CDT TUE JUL 23 2019

NOTE: "FAIR" INDICATES FEW OR NO CLOUDS BELOW 12,000 FEET WITH NO
SIGNIFICANT WEATHER AND/OR OBSTRUCTIONS TO VISIBILITY.


SDZ001>005-009-010-012>017-240300-
NORTHWEST AND NORTH CENTRAL SOUTH DAKOTA

CITY           SKY/WX    TMP DP  RH WIND       PRES   REMARKS
BUFFALO          N/A     78  64  61 SE15      30.07F
FAITH            N/A     73  61  65 SE15      30.13S
MOBRIDGE       CLEAR     73  62  68 SE8       30.13S
$$

SDZ012>016-024>037-041>051-057-063-072>074-240300-
SOUTHWEST AND SOUTH CENTRAL SOUTH DAKOTA

CITY           SKY/WX    TMP DP  RH WIND       PRES   REMARKS
RAPID CTY ARPT PTCLDY    76  66  71 E6        30.12F
PIERRE         CLEAR     73  60  63 SE12      30.13F
CUSTER         PTCLDY    69  59  70 E5        30.28F
ELLSWORTH AFB  CLEAR     78  72  82 SE8       30.12F
PHILIP         PTCLDY    76  63  64 E9        30.11F
PINE RIDGE     CLOUDY    80  60  50 SE9       30.13F
SPEARFISH      FAIR      73  63  68 E7        30.15S
WINNER         FAIR      73  59  61 SE9       30.17F
$$

SDZ004>011-016>023-039-040-240300-
NORTHEAST SOUTH DAKOTA

CITY           SKY/WX    TMP DP  RH WIND       PRES   REMARKS
ABERDEEN       PTCLDY    74  62  66 S3        30.18R
WATERTOWN      CLEAR     70  59  68 SW3       30.19S
BROOKINGS      CLEAR     73  61  65 MISG      30.20F
SISSETON         N/A     72  62  71 CALM      30.16S
$$

SDZ017-020-022-023-036>040-048>070-240300-
SOUTHEAST SOUTH DAKOTA

CITY           SKY/WX    TMP DP  RH WIND       PRES   REMARKS
SIOUX FALLS    MOCLDY    71  57  61 SE6       30.20S
HURON          PTCLDY    72  57  59 SE5       30.18S
CHAMBERLAIN    PTCLDY    74  66  76 E5        30.18R
MADISON        FAIR      68  59  73 S5        30.22R
MITCHELL       FAIR      73  59  61 E3        30.19R
YANKTON        CLEAR     74  59  59 E6        30.19S
$$

ABBREVIATIONS USED IN REMARKS
   TC - TEMPERATURE IN CELSIUS
  WCI - WIND CHILL INDEX
   HX - HEAT INDEX
  VSB - VISIBILITY




USA.gov is the U.S. government's official web portal to all federal, state and local government web resources and services.